User: anonymous   Login
Location: Chèvreville
(49.1099°N, 2.8495°E)
Time: 07:09:50
(UTC+00:00)
Language:

EO-79 - Orbit

View from above orbital plane
View from above orbital plane
View from above satellite
View from above satellite

Ground track
Ground track

The orbit data is extracted from the following two-line orbital elements,

1 40025U 14033R   23336.81246012  .00009579  00000-0  85346-3 0  9992
2 40025  98.0181 286.9915 0012912  93.6876 266.5821 14.96179176513330
Epoch (UTC): 02 December 2023 19:29:56
Eccentricity: 0.0012912
inclination: 98.0181°
perigee height: 570 km
apogee height: 588 km
right ascension of ascending node: 286.9915°
argument of perigee: 93.6876°
revolutions per day: 14.96179176
mean anomaly at epoch: 266.5821°
orbit number at epoch: 51333

The dashed part of the orbit path shows where the satellite is in the earth's shadow,  

DLR